Printer-friendly version

IAU Minor Planet Center

Minor Planet Center

MPEC 2008-G75 : 2008 FU6

The following Minor Planet Electronic Circular may be linked-to from your own Web pages, but must not otherwise be redistributed electronically.


Read MPEC 2008-G74 Read MPEC 2008-G76


M.P.E.C. 2008-G75                                Issued 2008 Apr. 13, 15:33 UT

     The Minor Planet Electronic Circulars contain information on unusual
         minor planets and routine data on comets.  They are published
   on behalf of Commission 20 of the International Astronomical Union by the
          Minor Planet Center, Smithsonian Astrophysical Observatory,
                          Cambridge, MA 02138, U.S.A.

             Prepared using the Tamkin Foundation Computer Network

                              MPC@CFA.HARVARD.EDU
          URL http://www.cfa.harvard.edu/iau/mpc.html  ISSN 1523-6714

                                   2008 FU6

                           Revision to MPEC 2008-F61

Additional Observations:
     K08F06U  C2003 01 14.43359 09 55 30.24 -07 01 13.9          20.6 R EG075644
     K08F06U  C2003 01 14.45470 09 55 28.65 -07 01 11.6          20.4 R EG075644
     K08F06U  C2003 01 14.47588 09 55 27.02 -07 01 09.3          20.4 R EG075644
     K08F06U  C2003 02 06.36503 09 18 46.75 -04 30 17.8          19.9 R EG075644
     K08F06U  C2003 02 06.38604 09 18 44.36 -04 30 04.4          20.0 R EG075644
     K08F06U  C2003 02 06.40742 09 18 41.91 -04 29 49.6          20.1 R EG075644
     K08F06U  C2003 03 30.15534008 19 28.070+06 44 20.76         21.34V EG075645
     K08F06U  C2003 03 30.15881208 19 28.044+06 44 22.78         22.19  EG075645
     K08F06U  C2008 04 12.35456 17 30 49.61 -00 43 50.7          16.3   EG075704
     K08F06U  C2008 04 12.36547 17 30 55.65 -00 42 49.9          16.6   EG075704
     K08F06U  C2008 04 12.37642 17 31 01.71 -00 41 48.7          16.4   EG075704
     K08F06U  C2008 04 12.38734 17 31 07.79 -00 40 47.0          16.5   EG075704
     K08F06U  C2008 04 12.39829 17 31 13.84 -00 39 45.8          16.7   EG075704

Observer details:
644 Palomar Mountain/NEAT.  Observers R. Bambery, E. Helin, S. Pravdo,
    M. Hicks, K. Lawrence, R. Thicksten.  Measurer R. J. Bouma.  1.2-m Schmidt
    + CCD.
704 Lincoln Laboratory ETS, New Mexico.  Observers M. Bezpalko, D. Torres,
    R. Kracke, G. Spitz, J. Kistler.  Measurers J. Stuart, S. Scruggs.  1.0-m
    f/2.15 reflector + CCD.
645 Apache Point--Sloan Digitial Sky Survey.  Observers Sloan Digital Sky
    Survey Collaboration.  Measurers Z. Ivezic, M. Juric, R. Lupton,
    S. Tabachnik, T. Quinn.  2.5-m SDSS Telescope + SDSS camera.

Orbital elements:
2008 FU6                                                 Earth MOID = 0.1007 AU
Epoch 2008 May 14.0 TT = JDT 2454600.5                  MPC
M 337.89174              (2000.0)            P               Q
n   0.64706345     Peri.  128.99955     +0.78310253     +0.61990144
a   1.3238480      Node   192.94781     -0.61679891     +0.76398871
e   0.5691455      Incl.   12.82222     -0.07943259     +0.17900688
P   1.52           H   17.9           G   0.15           U   4
Residuals in seconds of arc
030114 644  0.5-  0.4+    080402 H51  0.3+  0.2+    080405 379  0.1+  0.4-
030114 644  0.0   0.2+    080402 H51  0.5+  0.4+    080405 379  0.1-  0.6-
030114 644  0.1-  0.1-    080402 H51  0.4+  0.5+    080405 379  0.8-  0.9-
030206 644  0.4+  0.2-    080402 H51  0.0   0.4+    080406 B19  0.4-  0.8-
030206 644  0.1-  0.7-    080402 H51  0.4+  0.2+    080406 B19  0.2-  0.1+
030206 644  0.9-  0.1-    080402 H51  0.3+  0.2+    080406 B19  0.5-  0.5-
030330 645  0.0   0.0     080402 H51  0.2+  0.2+    080406 379  0.4-  0.4+
030330 645  0.1+  0.0     080402 H51  0.1-  0.2+    080406 379  0.3-  0.6+
080329 703  0.4-  0.3-    080402 H51  0.2+  0.2+    080406 379  0.1+  0.1+
080329 703  0.1-  0.5-    080402 H51  0.0   0.3+    080406 379  0.5-  0.4+
080329 703  0.5-  0.0     080402 H51  0.0   0.4+    080406 379  0.8-  0.4+
080330 A17  0.9-  0.5+    080402 H51  0.4+  0.5+    080406 379  0.6-  0.1-
080330 A17  0.3-  0.5-    080402 H51  0.1+  0.3+    080406 379  0.7-  0.4+
080330 A17  0.5-  0.3-    080402 H51  0.3+  0.1+    080406 379  0.6-  0.2-
080330 461  0.0   0.3-    080402 H51  0.6+  0.3+    080407 H45  0.2+  0.3-
080330 461  0.2+  0.2+    080402 H51  0.0   0.3+    080407 H45  0.4-  0.2-
080330 461  0.3+  0.0     080402 H51  0.4+  0.2+    080407 H45  0.1+  0.1-
080330 461  0.0   0.2-    080402 H51  0.2+  0.4+    080407 H45  0.4-  0.0
080330 118  0.1-  0.2-    080402 H51  0.5+  0.3+    080407 H45  0.2-  0.1+
080330 461  0.0   0.0     080403 448  0.1+  0.1-    080407 H45  0.2-  0.2+
080330 461  0.2-  0.4-    080403 448  0.1+  0.1-    080407 H45  0.2+  0.2-
080330 461  0.1-  0.0     080403 448  0.0   0.2-    080412 704  0.1-  0.4-
080330 118  0.2-  0.1-    080403 448  0.0   0.1-    080412 704  0.1-  0.4-
080330 461  0.0   0.1-    080403 448  0.1+  0.1-    080412 H45  0.1+  0.2-
080330 118  0.1-  0.0     080404 204  0.0   0.2-    080412 H45  0.1+  0.2-
080330 651  0.0   0.2+    080404 204  0.1-  0.2-    080412 H45  0.2+  0.1-
080330 651  0.1-  0.4+    080404 204  0.3-  0.2-    080412 H45  0.2+  0.2-
080330 651  0.0   1.2+    080404 711  0.5+  0.5+    080412 H45  0.2+  0.2-
080330 H06  0.2+  0.3-    080404 711  0.1+  0.5+    080412 H45  0.1+  0.2-
080330 H06  0.3+  0.7-    080404 711  0.9+  0.0     080412 H45  0.3+  0.2-
080330 704  0.3+  0.8+    080405 711  0.1-  0.5+    080412 704  0.0   0.3-
080330 704  0.1+  0.3+    080405 711  0.3-  0.3+    080412 H45  0.0   0.2-
080330 704  0.1+  0.3+    080405 711  0.3+  0.6+    080412 704  0.6+  0.4+
080330 704  0.0   1.3-    080405 379  0.3+  0.4-    080412 704  0.5+  0.4+
080330 704  0.1+  0.5+    080405 379  0.4-  0.4+    080412 448  0.4+  0.2-
080331 G96  0.1-  0.1-    080405 379  0.8-  0.3-    080412 448  0.3+  0.2-
080331 G96  0.1+  0.0     080405 379  0.4-  0.2-    080412 448  0.0   0.1-
080331 G96  0.3-  0.1-    080405 379  0.2+  0.3-

Ephemeris:
2008 FU6                 a,e,i = 1.32, 0.57, 13                  q = 0.5704
Date    TT    R. A. (2000) Decl.     Delta      r     Elong.  Phase     V
2008 04 14    17 47.24   +01 59.6    0.194    1.099   115.0    55.8    16.6
2008 04 24    20 15.34   +23 25.3    0.158    0.999    83.1    87.9    17.0
2008 05 04    23 03.28   +33 43.1    0.211    0.896    52.7   116.5    18.9
2008 05 14    00 38.48   +32 42.4    0.315    0.794    39.6   125.7    20.2
2008 05 24    01 32.81   +30 01.4    0.446    0.697    35.2   123.1    20.5
2008 06 03    02 14.75   +27 32.3    0.601    0.619    34.3   112.5    20.1
2008 06 13    02 55.78   +25 31.9    0.776    0.575    34.2    96.4    19.6
2008 06 23    03 39.13   +23 58.4    0.959    0.579    33.9    78.5    19.4
2008 07 03    04 23.16   +22 39.1    1.131    0.630    33.6    63.2    19.4
2008 07 13    05 05.06   +21 19.8    1.282    0.713    33.7    52.3    19.6
2008 07 23    05 43.35   +19 53.8    1.409    0.810    34.5    45.2    19.9
2008 08 02    06 17.79   +18 19.4    1.512    0.913    36.0    40.8    20.2
2008 08 12    06 48.62   +16 37.7    1.594    1.016    38.3    38.2    20.5
2008 08 22    07 16.25   +14 50.3    1.657    1.115    41.1    36.6    20.7
2008 09 01    07 41.09   +12 58.5    1.700    1.210    44.6    35.8    20.9
2008 09 11    08 03.44   +11 03.6    1.725    1.299    48.5    35.5    21.1
2008 09 21    08 23.51   +09 07.0    1.732    1.383    52.9    35.4    21.3
2008 10 01    08 41.48   +07 09.5    1.723    1.462    57.9    35.5    21.4
2008 10 11    08 57.37   +05 12.4    1.698    1.535    63.3    35.5    21.4
2008 10 21    09 11.16   +03 16.7    1.659    1.603    69.2    35.5    21.5
2008 10 31    09 22.76   +01 23.6    1.607    1.665    75.6    35.3    21.5
2008 11 10    09 31.91   -00 24.9    1.543    1.723    82.6    34.7    21.5
2008 11 20    09 38.32   -02 06.6    1.471    1.776    90.3    33.8    21.4
2008 11 30    09 41.55   -03 38.5    1.393    1.825    98.7    32.3    21.3
2008 12 10    09 41.09   -04 55.9    1.313    1.869   108.0    30.1    21.2
2008 12 20    09 36.45   -05 53.0    1.236    1.908   118.1    27.1    21.0
2008 12 30    09 27.26   -06 22.2    1.167    1.943   129.0    23.1    20.8
2009 01 09    09 13.63   -06 15.3    1.114    1.974   140.4    18.5    20.6
2009 01 19    08 56.48   -05 26.9    1.082    2.001   151.2    13.7    20.4
2009 01 29    08 37.55   -03 57.4    1.077    2.024   158.0    10.5    20.3
2009 02 08    08 19.22   -01 56.5    1.101    2.042   156.2    11.2    20.4
2009 02 18    08 03.66   +00 20.2    1.153    2.057   147.6    14.9    20.6
2009 02 28    07 52.21   +02 37.5    1.230    2.068   136.9    19.1    20.9
2009 03 10    07 45.37   +04 43.9    1.326    2.074   126.2    22.7    21.2
2009 03 20    07 42.92   +06 33.6    1.436    2.077   116.1    25.5    21.4
2009 03 30    07 44.35   +08 04.4    1.555    2.076   106.8    27.4    21.7
2009 04 09    07 49.06   +09 16.4    1.676    2.071    98.2    28.6    21.9
2009 04 19    07 56.45   +10 10.6    1.798    2.062    90.2    29.1    22.0
2009 04 29    08 06.04   +10 48.0    1.917    2.050    82.7    29.2    22.1
2009 05 09    08 17.41   +11 10.0    2.030    2.033    75.8    28.8    22.2
2009 05 19    08 30.24   +11 17.5    2.135    2.012    69.2    28.0    22.3
2009 05 29    08 44.29   +11 11.6    2.230    1.987    63.0    27.0    22.3
2009 06 08    08 59.35   +10 53.0    2.315    1.958    57.1    25.8    22.4
2009 06 18    09 15.27   +10 22.6    2.387    1.925    51.5    24.4    22.3
2009 06 28    09 31.98   +09 40.8    2.446    1.888    46.0    22.8    22.3
2009 07 08    09 49.39   +08 48.2    2.491    1.846    40.9    21.1    22.2
2009 07 18    10 07.49   +07 45.5    2.522    1.800    35.9    19.3    22.2
2009 07 28    10 26.30   +06 32.9    2.538    1.749    31.1    17.4    22.1
2009 08 07    10 45.85   +05 10.9    2.539    1.693    26.5    15.5    21.9
2009 08 17    11 06.23   +03 40.0    2.525    1.633    22.2    13.5    21.8
2009 08 27    11 27.57   +02 00.3    2.496    1.568    18.1    11.5    21.6

Gareth V. Williams           (C) Copyright 2008 MPC           M.P.E.C. 2008-G75

Read MPEC 2008-G74 Read MPEC 2008-G76


Our Web policy. Index to the CBAT/MPC/ICQ pages.


Valid HTML 4.01!